Miscellaneous Local Product
Issued by NWS Hastings, NE

Home | Current Version | Previous Version | Graphics & Text | Print | Product List | Glossary On
Versions: 1 2 3 4 5 6 7 8 9 10 11 12 13 14 15 16 17 18 19 20 21 22 23 24 25 26 27 28 29 30 31 32 33 34 35 36 37 38 39 40 41 42 43 44 45 46 47 48 49 50
000
AXUS43 KGID 261902
MISGRI

GID CWA HOURLY WEATHER ROUNDUP
NATIONAL WEATHER SERVICE HASTINGS NE
200 PM CDT THU APR 26 2018

NOTE: "FAIR" INDICATES FEW OR NO CLOUDS BELOW 12,000 FEET WITH NO
SIGNIFICANT WEATHER AND/OR OBSTRUCTIONS TO VISIBILITY.

...SOUTH CENTRAL NEBRASKA...

CITY           SKY/WX    TMP DP  RH WIND       PRES   REMARKS
GRAND ISLAND   CLOUDY    63  38  39 N29G41    30.05S
KEARNEY        MOSUNNY   61  35  37 N33G39    30.06S
HASTINGS       CLOUDY    63  39  41 N28G40    30.04S
ORD            SUNNY     61  29  29 N30G39    30.09S
YORK             N/A     63  41  45 N15G23    30.02R
AURORA         CLOUDY    62  39  41 N24G32    30.02F
LEXINGTON      MOSUNNY   63  33  32 N25G33    30.11R
HOLDREGE       CLOUDY    62  39  42 N26G39    30.08S
HEBRON         SUNNY     68  42  39 NW13G21   29.99F

...NEBRASKA PANHANDLE...

CITY           SKY/WX    TMP DP  RH WIND       PRES   REMARKS
CHADRON        PTSUNNY   59  30  33 N8        30.23F
ALLIANCE       SUNNY     59  29  31 N18G26    30.22F
SCOTTSBLUFF    PTSUNNY   59  29  31 NW18G29   30.25S
SIDNEY         PTSUNNY   59  29  31 N20G26    30.24S

...WESTERN AND NORTH CENTRAL NEBRASKA...

CITY           SKY/WX    TMP DP  RH WIND       PRES   REMARKS
VALENTINE      SUNNY     62  25  24 N24G36    30.16F
AINSWORTH      SUNNY     58  29  33 N23G31    30.16F
ONEILL         SUNNY     61  28  28 N29G36    30.11F
BROKEN BOW     SUNNY     61  29  29 N23G38    30.12S
IMPERIAL       SUNNY     63  31  30 NW26G43   30.18S
NORTH PLATTE   SUNNY     63  30  28 N23G35    30.15R
MCCOOK         SUNNY     64  34  32 N31G45    30.10R

...EASTERN NEBRASKA...

CITY           SKY/WX    TMP DP  RH WIND       PRES   REMARKS
NORFOLK        SUNNY     63  35  35 N26G45    30.01R
SO SIOUX CITY  SUNNY     65  40  39 N25G36    29.98R
TEKAMAH        MOSUNNY   66  38  35 N14G24    29.96S
COLUMBUS       PTSUNNY   64  40  41 N25G33    30.01S
ALBION         SUNNY     62  33  33 N23G32    30.06R
OMAHA EPPLEY   CLOUDY    68  41  37 W20G28    29.95F
OFFUTT AFB     PTSUNNY   67  40  38 SW12G20   29.94F
MILLARD        MOSUNNY   65  43  44 NW15G22   29.96S
LINCOLN        SUNNY     69  40  34 NW14G25   29.98F
NEBRASKA CITY  SUNNY     66  41  40 W7G22     29.97F
BEATRICE       SUNNY     69  45  42 W14G21    29.98F
FALLS CITY     CLOUDY    64  43  46 NW13      29.98F

...NORTHERN KANSAS...

CITY           SKY/WX    TMP DP  RH WIND       PRES   REMARKS
GOODLAND       LGT RAIN  62  31  31 N30G47    30.14R
HILL CITY      CLOUDY    62  40  44 N24G31    30.08R
NORTON         CLOUDY    59  36  41 N20G31    30.10R
PHILLIPSBURG   MOSUNNY   63  36  36 N21G29    30.07R
SMITH CENTER   SUNNY     64  39  39 N17G24    30.04R
BELOIT         SUNNY     66  41  39 SW5G16    30.00F
HAYS           SUNNY     69  34  27 NW9G16    30.02F
RUSSELL        SUNNY     69  37  30 NW3       30.00F
CONCORDIA      SUNNY     67  42  40 W12       30.00F
SALINA         MOSUNNY   67  45  45 NW7       30.02S
TOPEKA         CLOUDY    65  49  56 MISG      29.99F



USA.gov is the U.S. government's official web portal to all federal, state and local government web resources and services.